Fargo, ND

5:01 PM CDT on March 26, 2017 (GMT -0500)
Hector International

Weather History for KFAR - April, 2014

Change the Weather History Date:

Wednesday, April 16, 2014

  Actual Average Record
Temperature  
Mean Temperature 33 °F 45 °F  
Max Temperature 38 °F 57 °F 89 °F (2002)
Min Temperature 28 °F 33 °F 13 °F (1953)
Degree Days  
Heating Degree Days 32 20  
Month to date heating degree days 445 392  
Since 1 July heating degree days 9038 8222  
Cooling Degree Days 0 0  
Month to date cooling degree days 0 0  
Year to date cooling degree days 0 0  
Moisture  
Dew Point 23 °F    
Average Humidity 70    
Maximum Humidity 85    
Minimum Humidity 54    
Precipitation  
Precipitation 0.10 in 0.04 in 0.96 in (1967)
Month to date precipitation 0.56 0.64  
Year to date precipitation 2.16 3.25  
Snow  
Snow 1.50 in 0.10 in 2.50 in (1945)
Month to date snowfall 2.0 1.9  
Since 1 July snowfall 34.9 49.0  
Snow Depth 1.00 in    
Sea Level Pressure  
Sea Level Pressure 30.05 in    
Wind  
Wind Speed 14 mph (ENE)    
Max Wind Speed 22 mph    
Max Gust Speed 27 mph    
Visibility 6 miles    
Events Snow    
T = Trace of Precipitation, MM = Missing Value Source: NWS Daily Summary

Daily Weather History Graph

Daily Weather History Graph

Search for Another Location

Airport or City:

Trip Planner

Search our weather history database for the weather conditions in past years. The results will help you decide how hot, cold, wet, or windy it might be!

Date:

Astronomy

Apr. 16, 2014 Rise Set
Actual Time 6:37 AM CDT 8:17 PM CDT
Civil Twilight 6:05 AM CDT 8:49 PM CDT
Nautical Twilight 5:26 AM CDT 9:28 PM CDT
Astronomical Twilight 4:44 AM CDT 10:11 PM CDT
Moon 10:08 PM CDT (4/16) 7:21 AM CDT (4/16)
Length of Visible Light 14h 43m
Length of Day
13h 39m
Full, 98% of the Moon is Illuminated
Apr 16
Full
Apr 22
Last Quarter
Apr 29
New
May 6
First Quarter
May 14
Full

Hourly Weather History & Observations

Time (CDT) Temp. Windchill Dew Point Humidity Pressure Visibility Wind Dir Wind Speed Gust Speed Precip Events Conditions
12:53 AM 32.0 °F 22.1 °F 18.0 °F 56% 30.01 in 10.0 mi ESE 13.8 mph - N/A   Overcast
1:53 AM 30.9 °F 18.4 °F 21.0 °F 67% 30.00 in 4.0 mi ESE 20.7 mph 26.5 mph 0.00 in Snow Light Snow
2:02 AM 30.0 °F 18.7 °F 21.9 °F 72% 29.96 in 3.0 mi ESE 16.1 mph - 0.00 in Snow Light Snow
2:13 AM 30.0 °F 19.1 °F 23.0 °F 75% 29.96 in 2.0 mi East 15.0 mph - 0.00 in Snow Light Snow
2:22 AM 28.9 °F 16.9 °F 23.0 °F 78% 29.96 in 1.5 mi East 17.3 mph - 0.00 in Snow Light Snow
2:53 AM 28.9 °F 17.7 °F 24.1 °F 82% 29.99 in 2.5 mi East 15.0 mph - 0.01 in Snow Light Snow
3:12 AM 28.0 °F 17.5 °F 24.1 °F 85% 29.94 in 1.2 mi East 12.7 mph - 0.00 in Snow Light Snow
3:53 AM 28.0 °F 18.1 °F 24.1 °F 85% 29.99 in 1.0 mi East 11.5 mph - 0.02 in Snow Light Snow
4:03 AM 28.0 °F 17.5 °F 24.1 °F 85% 29.95 in 0.8 mi East 12.7 mph - 0.01 in Snow Light Snow
4:14 AM 28.0 °F 18.1 °F 24.1 °F 85% 29.96 in 0.8 mi East 11.5 mph - 0.01 in Snow Light Snow
4:20 AM 28.0 °F 17.5 °F 24.1 °F 85% 29.96 in 1.0 mi East 12.7 mph - 0.02 in Snow Light Snow
4:50 AM 28.4 °F 16.6 °F 24.8 °F 86% 29.96 in 2.5 mi East 16.1 mph - 0.04 in Snow Light Snow
4:51 AM 28.0 °F 16.1 °F 24.1 °F 85% 30.00 in 2.5 mi East 16.1 mph - 0.04 in Snow Light Snow
4:59 AM 28.4 °F 17.5 °F 24.8 °F 86% 29.96 in 3.0 mi East 13.8 mph - N/A Snow Light Snow
5:10 AM 28.0 °F 18.6 °F 24.1 °F 85% 29.96 in 2.5 mi ENE 10.4 mph - 0.00 in Snow Light Snow
5:15 AM 28.0 °F 17.5 °F 24.1 °F 85% 29.96 in 1.5 mi ENE 12.7 mph - 0.00 in Snow Light Snow
5:45 AM 28.0 °F 17.5 °F 24.1 °F 85% 29.97 in 1.2 mi ENE 12.7 mph - 0.01 in Snow Light Snow
5:53 AM 28.0 °F 16.5 °F 24.1 °F 85% 30.01 in 1.2 mi ENE 15.0 mph - 0.02 in Snow Light Snow
6:06 AM 28.0 °F 16.1 °F 24.1 °F 85% 29.97 in 2.0 mi ENE 16.1 mph - 0.00 in Snow Light Snow
6:29 AM 28.0 °F 17.5 °F 24.1 °F 85% 29.98 in 1.8 mi ENE 12.7 mph - 0.01 in Snow Light Snow
6:53 AM 28.0 °F 16.5 °F 23.0 °F 81% 30.02 in 2.0 mi ENE 15.0 mph - 0.01 in Snow Light Snow
7:05 AM 28.0 °F 15.7 °F 23.0 °F 81% 29.98 in 1.5 mi ENE 17.3 mph - 0.00 in Snow Light Snow
7:15 AM 28.0 °F 16.5 °F 23.0 °F 81% 29.98 in 2.5 mi ENE 15.0 mph - 0.00 in Snow Light Snow
7:24 AM 28.0 °F 16.1 °F 23.0 °F 81% 29.98 in 3.0 mi ENE 16.1 mph - 0.00 in Snow Light Snow
7:53 AM 28.0 °F 17.0 °F 21.9 °F 78% 30.04 in 10.0 mi ENE 13.8 mph - 0.00 in   Overcast
8:06 AM 28.9 °F 18.2 °F 21.9 °F 75% 30.00 in 10.0 mi NE 13.8 mph - N/A   Overcast
8:53 AM 28.0 °F 14.9 °F 21.9 °F 78% 30.05 in 10.0 mi NE 19.6 mph - N/A   Overcast
9:53 AM 28.9 °F 17.7 °F 21.9 °F 75% 30.06 in 10.0 mi NE 15.0 mph - N/A   Overcast
10:53 AM 30.0 °F 17.9 °F 21.9 °F 72% 30.08 in 9.0 mi ENE 18.4 mph - 0.00 in   Overcast
11:39 AM 30.0 °F 18.3 °F 21.9 °F 72% 30.05 in 6.0 mi NE 17.3 mph - 0.00 in   Haze
11:53 AM 30.9 °F 18.7 °F 21.9 °F 69% 30.09 in 7.0 mi ENE 19.6 mph 26.5 mph 0.00 in Snow Light Snow
12:25 PM 30.9 °F 20.7 °F 21.9 °F 69% 30.06 in 10.0 mi ENE 13.8 mph - 0.00 in   Overcast
12:53 PM 32.0 °F 21.2 °F 23.0 °F 69% 30.06 in 10.0 mi NE 16.1 mph - N/A   Overcast
1:53 PM 34.0 °F 24.2 °F 23.0 °F 64% 30.10 in 10.0 mi ENE 15.0 mph 25.3 mph N/A   Overcast
2:53 PM 35.1 °F 25.2 °F 24.1 °F 64% 30.13 in 10.0 mi ENE 16.1 mph - N/A   Overcast
3:53 PM 35.6 °F 25.9 °F 23.0 °F 60% 30.10 in 10.0 mi NE 16.1 mph - N/A   Overcast
4:53 PM 37.0 °F 27.7 °F 24.1 °F 59% 30.16 in 10.0 mi NE 16.1 mph - N/A   Overcast
5:53 PM 37.9 °F 30.0 °F 23.0 °F 55% 30.17 in 10.0 mi NE 12.7 mph - N/A   Overcast
6:53 PM 37.9 °F 30.9 °F 23.0 °F 55% 30.19 in 10.0 mi NE 10.4 mph - N/A   Partly Cloudy
7:53 PM 36.0 °F 29.6 °F 21.9 °F 57% 30.20 in 10.0 mi NE 8.1 mph - N/A   Clear
8:53 PM 34.0 °F 27.2 °F 19.0 °F 54% 30.23 in 10.0 mi NNE 8.1 mph - N/A   Clear
9:53 PM 30.9 °F 21.7 °F 18.0 °F 59% 30.25 in 10.0 mi North 11.5 mph - N/A   Clear
10:53 PM 30.9 °F 20.7 °F 19.0 °F 61% 30.26 in 10.0 mi North 13.8 mph - N/A   Clear
11:53 PM 30.0 °F 20.5 °F 18.0 °F 61% 30.27 in 10.0 mi NNE 11.5 mph - N/A   Clear